Current weather by "City, St" or "zip code"  
 

Current Conditions: Mullan Pass, Mullan Pass Vor, MT

Fair


32.0 F

Last Updated on Oct 31 2020, 10:53 am PDT
Humidity: 69%
Wind Speed: N 0.0 mph
Barometer 30.33 in
Dewpoint: 23.0 F
Visibility: 10.00 mi
Precip: --
Heat Index: NA
Wind Chill: NA
Current conditions at:

Mullan Pass, Mullan Pass Vor, MT (KMLP)

Lat: 47.45417 Lon: 115.66972

Local Radar Image active severe weather and emergency alerts image image weather storm and storm spotter reports image weather observation monitoring service image
Local
Radar
Active
Alerts
Storm Reports Obs
Monitoring

Sign-up For Email & Text Message Weather Alert Notification Services



Advertise Here

Observation History for Mullan Pass, Mullan Pass Vor, MT


Time Wind
(mph)
Vis
(mi)
Weather Precip (in) Temperature (F) Relative
Humidity
Wind
Chill
(F)
Heat
Index
(F)
Pressure
Air Dwpt altimeter
(in)
sea level
(mb)
Rmks
10:53 am PDT N 0.0 10.00 Fair -- 32.0 23.0 69% NA NA 30.33 1025.0
9:53 am PDT 3.5 10.00 Fair -- 30.0 23.0 75% NA NA 30.32 1024.7
8:53 am PDT SW 5.8 10.00 Fair -- 27.0 21.9 81% 20 NA 30.30 1024.2
7:53 am PDT SW 6.9 10.00 Fair -- 26.0 21.0 81% 18 NA 30.27 1023.2
6:53 am PDT NW 3.5 10.00 Fair -- 24.0 19.9 84% NA NA 30.25 1027.6
5:53 am PDT 3.5 10.00 Fair -- 25.0 19.9 81% NA NA 30.24 1022.1
4:53 am PDT N 0.0 10.00 Fair -- 26.0 21.0 81% NA NA 30.20 1020.7
3:53 am PDT SW 6.9 10.00 Fair -- 27.0 21.0 78% 20 NA 30.18 1019.7
2:53 am PDT SW 8.1 10.00 Fair -- 28.0 21.0 75% 20 NA 30.17 1019.1
1:53 am PDT SW 6.9 10.00 Overcast -- 29.0 21.0 72% 22 NA 30.14 1017.8
12:53 am PDT SW 5.8 10.00 Overcast -- 30.0 21.0 69% 24 NA 30.11 1016.8
11:53 pm PDT SW 6.9 10.00 Partly Cloudy -- 30.0 19.9 66% 23 NA 30.08 1016.1
10:53 pm PDT 5.8 G 16.1 10.00 Partly Cloudy -- 31.0 21.0 67% 25 NA 30.04 1014.0
9:53 pm PDT 5.8 10.00 A Few Clouds -- 31.0 21.9 69% 25 NA 30.03 1012.9
8:53 pm PDT SW 6.9 10.00 Fair -- 32.0 23.0 69% 26 NA 30.00 1011.8
7:53 pm PDT W 5.8 10.00 Overcast -- 34.0 24.1 67% 29 NA 29.98 1010.7
6:53 pm PDT SW 10.4 G 16.1 10.00 Overcast -- 34.0 23.0 64% 26 NA 29.93 1009.3
5:53 pm PDT W 9.2 10.00 Partly Cloudy -- 35.0 21.9 59% 28 NA 29.90 1008.2
4:53 pm PDT W 9.2 G 21.9 9.00 Overcast -- 35.0 28.9 78% 28 NA 29.87 1006.8
3:53 pm PDT W 10.4 G 21.9 10.00 Mostly Cloudy Trace 36.0 28.9 76% 28 NA 29.85 1006.1
2:53 pm PDT 6.9 G 21.9 10.00 Overcast -- 36.0 27.0 70% 30 NA 29.84 1005.9
1:53 pm PDT W 12.7 G 28.8 10.00 Mostly Cloudy -- 36.0 27.0 70% 28 NA 29.80 1004.2
12:53 pm PDT SW 8.1 G 28.8 10.00 Partly Cloudy -- 35.0 30.0 82% 28 NA 29.79 1003.9
11:53 am PDT W 10.4 G 21.9 0.75 Light Snow Fog/Mist 00.01 33.0 28.9 85% 25 NA 29.81 1004.7

Regional Weather Observation


Coeur dAlene Airport - Pappy Boyington Field, ID (KCOE)

Fair
44.0 F

Sandpoint, Sandpoint Airport, ID (KSZT)

Fair
43.0 F

Spokane, Felts Field, WA (KSFF)

Fair
44.0 F

Boundary County Airport, ID (K65S)

Fair
41.0 F

Deer Park, Deer Park Airport, WA (KDEW)

Fair
41.0 F

Spokane, Spokane International Airport, WA (KGEG)

A Few Clouds
42.0 F